星链-11104 [DTC] (STARLINK-11104 [DTC] )

导读 | 豆包AI

STARLINK-11104是美国太空探索技术公司SpaceX星链星座的一员,于2024年5月14日发射升空。星链星座旨在构建全球卫星互联网通信系统,为全球偏远地区、海洋与空中提供高速低延迟宽带服务。该卫星入轨后,将进一步扩充星链星座规模,增强星座整体服务能力与覆盖范围。

基本信息
目录编号:
59763
目录名称:
STARLINK-11104
国际标识:
2024-091L
轨道中心:
EARTH
卫星名称:
星链-11104 [DTC]
卫星全名:
星链-11104 [DTC] (STARLINK-11104 [DTC] )
卫星状态:
在轨 (已飞行717 天)
发射日期:
2024-05-14 UTC
国别 :
美国 (US)
星等 :
--
轨道信息
数据来源 国际轨道数据
星历时间: 2026-05-01T06:39:00+0800
18小时前
查看轨道信息
半长轴: 6737.854km
偏心率: 0.0000641
轨道倾角: 53.158°
近地点辐角 84.904°
升交点赤经 308.429°
平近点角 275.205°
近地点: 359.285km
远地点: 360.149km
周期: 91.736分钟
每日圈数: 15.697135
详细信息
固有亮度:
5
最大亮度:
0.6
卫星平台:
Starlink v2.0 mini
覆盖范围:
全球
运营商:
太空探索技术公司
运营商所在国:
美国
制造商(研发单位):
太空探索技术公司
制造商所在国:
美国
使用方式:
暂无
卫星简介
星链(Starlink)计划是由太空探索技术公司(SpaceX)提出的一个巨型低轨卫星互联网星座项目,计划在2019年至2024年间在太空搭建由约1.2万颗卫星组成的“星链”网络,其中1584颗将部署在地球上空550千米处的近地轨道,并从2020年开始工作。该卫星仍在工作。
2D轨道图
3D轨道图
轨道高度分析图
轨道倾角分析图
轨道综合分析图
查看轨道综合分析图